User: anonymous   Login
Location: Unspecified
(0.0000°N, 0.0000°E)
Time: 16:39:33
(UTC+00:00)
Language:

MOS 1 - Orbit

View from above orbital plane
View from above orbital plane
View from above satellite
View from above satellite

Ground track
Ground track

The orbit data is extracted from the following two-line orbital elements,

1 17527U 87018A   18169.92745929 +.00000125 +00000-0 +11110-3 0  9993
2 17527 099.2441 195.0474 0008527 009.4763 052.5464 14.02514866600654
Epoch (UTC): 18 June 2018 22:15:32
Eccentricity: 0.0008527
inclination: 99.2441°
perigee height: 879 km
apogee height: 891 km
right ascension of ascending node: 195.0474°
argument of perigee: 9.4763°
revolutions per day: 14.02514866
mean anomaly at epoch: 52.5464°
orbit number at epoch: 60065

The dashed part of the orbit path shows where the satellite is in the earth's shadow,  

DLR